| time (UTC) | temp F | wind direction | speed knots | gust knots | rain 1hr in | rain 24hr in | rain mn in | humidity % | barometer mb |
| 20260503021215 | 48 | 203 | 1.7 | 2.6 | 0.00 | 0.00 | 0.00 | 51 | 1015.2 |
| 20260503020216 | 49 | 203 | 1.7 | 3.5 | 0.00 | 0.00 | 0.00 | 50 | 1015.0 |
| 20260503015238 | 49 | 180 | 1.7 | 2.6 | 0.00 | 0.00 | 0.00 | 48 | 1014.9 |
| 20260503014218 | 50 | 203 | 1.7 | 2.6 | 0.00 | 0.00 | 0.00 | 47 | 1014.8 |
| 20260503013238 | 50 | 203 | 2.6 | 2.6 | 0.00 | 0.00 | 0.00 | 47 | 1014.9 |
| 20260503012218 | 51 | 203 | 1.7 | 2.6 | 0.00 | 0.00 | 0.00 | 45 | 1014.8 |
| 20260503011217 | 51 | 203 | 1.7 | 2.6 | 0.00 | 0.00 | 0.00 | 44 | 1014.8 |
| 20260503010218 | 52 | 225 | 3.5 | 4.3 | 0.00 | 0.00 | 0.00 | 43 | 1014.8 |
| 20260503005218 | 52 | 225 | 2.6 | 4.3 | 0.00 | 0.00 | 0.00 | 42 | 1014.8 |
| 20260503004218 | 53 | 203 | 3.5 | 4.3 | 0.00 | 0.00 | 0.00 | 41 | 1014.8 |
| 20260503003236 | 54 | 203 | 3.5 | 4.3 | 0.00 | 0.00 | 0.00 | 39 | 1014.6 |
| 20260503002238 | 54 | 248 | 2.6 | 3.5 | 0.00 | 0.00 | 0.00 | 38 | 1014.8 |
| 20260503001218 | 55 | 225 | 5.2 | 6.1 | 0.00 | 0.00 | 0.00 | 37 | 1014.9 |
| 20260503000218 | 55 | 248 | 5.2 | 7.0 | 0.00 | 0.00 | 0.00 | 36 | 1014.7 |
| 20260502235217 | 55 | 270 | 7.8 | 10.4 | 0.00 | 0.00 | 0.00 | 35 | 1014.7 |
| 20260502234217 | 55 | 248 | 4.3 | 6.1 | 0.00 | 0.00 | 0.00 | 37 | 1014.7 |
| 20260502233218 | 55 | 293 | 3.5 | 3.5 | 0.00 | 0.00 | 0.00 | 36 | 1015.0 |
| 20260502232217 | 56 | 225 | 7.8 | 11.3 | 0.00 | 0.00 | 0.00 | 35 | 1015.0 |
| 20260502231238 | 57 | 270 | 9.6 | 13.9 | 0.00 | 0.00 | 0.00 | 34 | 1015.1 |
| 20260502230238 | 56 | 225 | 7.0 | 8.7 | 0.00 | 0.00 | 0.00 | 36 | 1015.1 |
| 20260502225217 | 56 | 270 | 6.1 | 7.0 | 0.00 | 0.00 | 0.00 | 35 | 1015.2 |
| 20260502224217 | 57 | 225 | 4.3 | 7.8 | 0.00 | 0.00 | 0.00 | 35 | 1015.3 |
| 20260502223217 | 58 | 270 | 8.7 | 13.0 | 0.00 | 0.00 | 0.00 | 35 | 1015.4 |
| 20260502222217 | 58 | 270 | 10.4 | 13.9 | 0.00 | 0.00 | 0.00 | 35 | 1015.4 |
| 20260502221217 | 57 | 248 | 7.0 | 11.3 | 0.00 | 0.00 | 0.00 | 36 | 1015.3 |
| 20260502220257 | 57 | 270 | 4.3 | 7.0 | 0.00 | 0.00 | 0.00 | 36 | 1015.4 |
| 20260502215218 | 57 | 270 | 8.7 | 10.4 | 0.00 | 0.00 | 0.00 | 36 | 1015.6 |
| 20260502214217 | 57 | 270 | 8.7 | 12.2 | 0.00 | 0.00 | 0.00 | 38 | 1015.5 |
| 20260502213217 | 54 | 270 | 9.6 | 13.9 | 0.00 | 0.00 | 0.00 | 39 | 1015.6 |
| 20260502212217 | 54 | 315 | 3.5 | 6.1 | 0.00 | 0.00 | 0.00 | 39 | 1015.7 |
| 20260502211217 | 55 | 315 | 4.3 | 7.0 | 0.00 | 0.00 | 0.00 | 39 | 1015.8 |
| 20260502210217 | 54 | 270 | 2.6 | 3.5 | 0.00 | 0.00 | 0.00 | 40 | 1015.8 |
| 20260502205218 | 55 | 270 | 5.2 | 7.8 | 0.00 | 0.00 | 0.00 | 38 | 1016.0 |
| 20260502204217 | 56 | 270 | 9.6 | 13.0 | 0.00 | 0.00 | 0.00 | 36 | 1016.2 |
| 20260502203217 | 57 | 225 | 5.2 | 9.6 | 0.00 | 0.00 | 0.00 | 38 | 1016.2 |
| 20260502202217 | 57 | 225 | 2.6 | 3.5 | 0.00 | 0.00 | 0.00 | 38 | 1016.3 |
| 20260502201217 | 56 | 248 | 7.0 | 9.6 | 0.00 | 0.00 | 0.00 | 38 | 1016.5 |
| 20260502200237 | 56 | 293 | 4.3 | 7.0 | 0.00 | 0.00 | 0.00 | 37 | 1016.7 |
| 20260502195237 | 56 | 293 | 9.6 | 12.2 | 0.00 | 0.00 | 0.00 | 38 | 1016.8 |
| 20260502194217 | 55 | 248 | 1.7 | 3.5 | 0.00 | 0.00 | 0.00 | 40 | 1016.9 |
| 20260502193238 | 54 | 270 | 4.3 | 7.0 | 0.00 | 0.00 | 0.00 | 41 | 1017.1 |
| 20260502192217 | 53 | 315 | 5.2 | 9.6 | 0.00 | 0.00 | 0.00 | 41 | 1017.2 |
| 20260502191218 | 53 | 315 | 3.5 | 6.1 | 0.00 | 0.00 | 0.00 | 39 | 1017.3 |
| 20260502190217 | 54 | 293 | 4.3 | 9.6 | 0.00 | 0.00 | 0.00 | 39 | 1017.4 |
| 20260502185217 | 55 | 0 | 1.7 | 3.5 | 0.00 | 0.00 | 0.00 | 39 | 1017.5 |
| 20260502184217 | 55 | 293 | 4.3 | 8.7 | 0.00 | 0.00 | 0.00 | 41 | 1017.6 |
| 20260502183258 | 54 | 293 | 6.1 | 11.3 | 0.00 | 0.00 | 0.00 | 39 | 1017.7 |
| 20260502182217 | 52 | 315 | 6.1 | 8.7 | 0.00 | 0.00 | 0.00 | 43 | 1017.8 |
| 20260502181217 | 52 | 293 | 2.6 | 4.3 | 0.00 | 0.00 | 0.00 | 41 | 1017.9 |
| 20260502180217 | 52 | 0 | 4.3 | 7.0 | 0.00 | 0.00 | 0.00 | 39 | 1018.0 |
| 20260502170237 | 51 | 293 | 4.3 | 7.0 | 0.00 | 0.00 | 0.00 | 42 | 1018.5 |
| 20260502164217 | 52 | 293 | 7.8 | 11.3 | 0.00 | 0.00 | 0.00 | 40 | 1018.7 |
| 20260502163217 | 52 | 248 | 4.3 | 7.0 | 0.00 | 0.00 | 0.00 | 42 | 1018.8 |
| 20260502162217 | 51 | 270 | 5.2 | 7.0 | 0.00 | 0.00 | 0.00 | 43 | 1018.9 |
| 20260502161216 | 51 | 293 | 9.6 | 13.9 | 0.00 | 0.00 | 0.00 | 44 | 1018.9 |
| 20260502160217 | 51 | 338 | 3.5 | 7.0 | 0.00 | 0.00 | 0.00 | 41 | 1019.0 |
| 20260502152217 | 50 | 315 | 1.7 | 13.0 | 0.00 | 0.00 | 0.00 | 42 | 1019.2 |
| 20260502151216 | 49 | 293 | 7.0 | 7.8 | 0.00 | 0.00 | 0.00 | 44 | 1019.1 |
| 20260502150216 | 50 | 315 | 4.3 | 8.7 | 0.00 | 0.00 | 0.00 | 46 | 1019.0 |
| 20260502130216 | 39 | 293 | 2.6 | 3.5 | 0.00 | 0.00 | 0.00 | 89 | 1019.0 |
| 20260502123216 | 35 | 293 | 1.7 | 2.6 | 0.00 | 0.00 | 0.00 | 91 | 1018.9 |
| 20260502122236 | 34 | 293 | 1.7 | 1.7 | 0.00 | 0.00 | 0.00 | 91 | 1018.9 |
| 20260502121236 | 34 | 293 | 1.7 | 3.5 | 0.00 | 0.00 | 0.00 | 91 | 1018.7 |
| 20260502120216 | 33 | 293 | 1.7 | 1.7 | 0.00 | 0.00 | 0.00 | 91 | 1018.7 |
| 20260502115216 | 32 | 338 | 0.9 | 0.9 | 0.00 | 0.00 | 0.00 | 91 | 1018.5 |
| 20260502114216 | 30 | 338 | 0.9 | 0.9 | 0.00 | 0.00 | 0.00 | 90 | 1018.4 |
| 20260502113216 | 29 | 0.0 | 0.9 | 0.00 | 0.00 | 0.00 | 90 | 1018.3 | |
| 20260502112216 | 29 | 0.0 | 0.0 | 0.00 | 0.00 | 0.00 | 89 | 1018.2 | |
| 20260502111216 | 29 | 0.0 | 0.0 | 0.00 | 0.00 | 0.00 | 89 | 1018.2 | |
| 20260502110216 | 29 | 0.0 | 0.0 | 0.00 | 0.00 | 0.00 | 89 | 1018.1 | |
| 20260502105216 | 29 | 0.0 | 0.0 | 0.00 | 0.01 | 0.00 | 90 | 1018.0 | |
| 20260502104236 | 29 | 0.0 | 0.0 | 0.00 | 0.01 | 0.00 | 89 | 1018.0 | |
| 20260502103216 | 29 | 0.0 | 0.0 | 0.00 | 0.01 | 0.00 | 89 | 1017.9 | |
| 20260502102237 | 29 | 0.0 | 0.0 | 0.00 | 0.01 | 0.00 | 88 | 1017.9 | |
| 20260502101216 | 29 | 0.0 | 0.0 | 0.00 | 0.01 | 0.00 | 89 | 1018.0 | |
| 20260502100216 | 29 | 0.0 | 0.0 | 0.00 | 0.01 | 0.00 | 88 | 1017.9 | |
| 20260502091216 | 29 | 0.0 | 0.0 | 0.00 | 0.01 | 0.00 | 88 | 1017.9 | |
| 20260502090216 | 29 | 0.0 | 0.0 | 0.00 | 0.01 | 0.00 | 88 | 1017.9 | |
| 20260502071218 | 31 | 0.0 | 0.0 | 0.00 | 0.04 | 0.00 | 86 | 1018.0 | |
| 20260502070218 | 31 | 0.0 | 0.0 | 0.00 | 0.04 | 0.00 | 86 | 1018.1 | |
| 20260502065217 | 31 | 0.0 | 0.0 | 0.00 | 0.04 | 0.00 | 86 | 1018.2 | |
| 20260502064217 | 31 | 0.0 | 0.0 | 0.00 | 0.04 | 0.00 | 85 | 1018.3 | |
| 20260502063217 | 31 | 0.0 | 0.0 | 0.00 | 0.04 | 0.00 | 85 | 1018.3 | |
| 20260502062218 | 31 | 0.0 | 0.0 | 0.00 | 0.04 | 0.00 | 85 | 1018.4 | |
| 20260502061218 | 31 | 0.0 | 0.0 | 0.00 | 0.04 | 0.00 | 84 | 1018.4 | |
| 20260502060218 | 31 | 0.0 | 0.0 | 0.00 | 0.04 | 0.00 | 84 | 1018.5 | |
| 20260502055236 | 31 | 0.0 | 0.0 | 0.00 | 0.05 | 0.00 | 83 | 1018.6 | |
| 20260502054217 | 32 | 0.0 | 0.0 | 0.00 | 0.05 | 0.00 | 82 | 1018.5 | |
| 20260502053220 | 32 | 0.0 | 0.0 | 0.00 | 0.05 | 0.00 | 82 | 1018.5 | |
| 20260502052218 | 32 | 0.0 | 0.0 | 0.00 | 0.05 | 0.00 | 82 | 1018.4 | |
| 20260502051258 | 32 | 0.0 | 0.0 | 0.00 | 0.05 | 0.00 | 81 | 1018.5 | |
| 20260502050238 | 32 | 0.0 | 0.0 | 0.00 | 0.05 | 0.00 | 81 | 1018.4 | |
| 20260502045216 | 32 | 0.0 | 0.0 | 0.00 | 0.15 | 0.05 | 80 | 1018.4 | |
| 20260502044216 | 33 | 0.0 | 0.0 | 0.00 | 0.15 | 0.05 | 80 | 1018.5 | |
| 20260502043236 | 33 | 0.0 | 0.0 | 0.00 | 0.15 | 0.05 | 80 | 1018.5 | |
| 20260502042216 | 33 | 0.0 | 0.0 | 0.00 | 0.15 | 0.05 | 80 | 1018.5 | |
| 20260502041216 | 34 | 0.0 | 0.9 | 0.00 | 0.15 | 0.05 | 79 | 1018.4 | |
| 20260502040216 | 34 | 0.0 | 0.0 | 0.00 | 0.15 | 0.05 | 79 | 1018.4 | |
| 20260502035216 | 34 | 0.0 | 0.0 | 0.00 | 0.15 | 0.05 | 79 | 1018.3 | |
| 20260502034216 | 35 | 0.0 | 0.0 | 0.00 | 0.15 | 0.05 | 79 | 1018.2 | |
| 20260502033236 | 35 | 0.0 | 0.0 | 0.00 | 0.15 | 0.05 | 78 | 1018.3 | |
| 20260502032236 | 35 | 0.0 | 0.9 | 0.00 | 0.15 | 0.05 | 78 | 1018.2 | |
| 20260502031216 | 36 | 0.0 | 0.0 | 0.00 | 0.15 | 0.05 | 77 | 1018.1 | |
| 20260502030216 | 36 | 0.0 | 0.0 | 0.00 | 0.15 | 0.05 | 77 | 1018.0 | |
| 20260502025216 | 36 | 68 | 0.9 | 1.7 | 0.00 | 0.16 | 0.05 | 77 | 1018.0 |
| 20260502024216 | 36 | 68 | 0.9 | 1.7 | 0.00 | 0.16 | 0.05 | 77 | 1017.9 |
| 20260502023216 | 37 | 68 | 0.9 | 1.7 | 0.00 | 0.16 | 0.05 | 77 | 1017.8 |
| 20260502022216 | 37 | 68 | 0.9 | 1.7 | 0.00 | 0.16 | 0.05 | 77 | 1017.8 |